When you browse on this site, cookies collect data to enhance your experience and personalize the content and advertising you see.
Visit our Privacy Policy to learn more. By continuing to use the site, you agree to this use of cookies and data.
  • In Slovakia
  • List of Countries
  • For 7 days
  • Water Temperature
  • Satellite Maps
  • Weather Map
  • Weather Widgets
  • user-avatar
    Login

    Hourly Weather Kapan

    Today, 21 March, Thursday

    Time Temperature Precipitation Wind Pressure Humidity
    00:00 +4°C° 0.3 mm 0 mps 685 mmHg 75%
    01:00 +4°C° 0.2 mm 0 mps 685 mmHg 75%
    02:00 +4°C° 0.2 mm 0 mps 685 mmHg 75%
    03:00 +4°C° 0 mm 0 mps 685 mmHg 73%
    04:00 +4°C° 0.2 mm 0 mps 685 mmHg 73%
    05:00 +5°C° 0.2 mm 1 mps 685 mmHg 73%
    06:00 +5°C° 0.2 mm 1 mps 685 mmHg 73%
    07:00 +6°C° 0.1 mm 1 mps 685 mmHg 70%
    08:00 +7°C° 0.1 mm 1 mps 685 mmHg 67%
    09:00 +8°C° 0 mm 1 mps 685 mmHg 65%
    10:00 +7°C° 0.1 mm 2 mps 685 mmHg 64%
    11:00 +8°C° 0.1 mm 2 mps 685 mmHg 63%
    12:00 +9°C° 0.1 mm 2 mps 685 mmHg 62%
    13:00 +9°C° 0.1 mm 2 mps 685 mmHg 61%
    14:00 +9°C° 0.1 mm 2 mps 685 mmHg 61%
    15:00 +10°C° 0.1 mm 2 mps 685 mmHg 60%
    16:00 +9°C° 0.1 mm 2 mps 685 mmHg 63%
    17:00 +8°C° 0.1 mm 2 mps 684 mmHg 65%
    18:00 +8°C° 0.1 mm 1 mps 684 mmHg 68%
    19:00 +8°C° 0.2 mm 1 mps 684 mmHg 70%
    20:00 +7°C° 0.2 mm 1 mps 685 mmHg 72%
    21:00 +6°C° 0.2 mm 0 mps 685 mmHg 73%
    22:00 +6°C° 0.1 mm 0 mps 685 mmHg 73%
    23:00 +6°C° 0.1 mm 0 mps 685 mmHg 73%

    Tomorrow, 22 March, Friday

    Time Temperature Precipitation Wind Pressure Humidity
    00:00 +6°C° 0.1 mm 0 mps 685 mmHg 74%
    01:00 +6°C° 0 mm 1 mps 685 mmHg 73%
    02:00 +6°C° 0 mm 1 mps 685 mmHg 73%
    03:00 +6°C° 0 mm 1 mps 685 mmHg 72%
    04:00 +6°C° 0 mm 1 mps 685 mmHg 72%
    05:00 +5°C° 0 mm 1 mps 685 mmHg 72%
    06:00 +4°C° 0 mm 0 mps 685 mmHg 71%
    07:00 +6°C° 0 mm 1 mps 685 mmHg 67%
    08:00 +8°C° 0 mm 1 mps 686 mmHg 63%
    09:00 +9°C° 0 mm 1 mps 686 mmHg 59%
    10:00 +9°C° 0 mm 2 mps 686 mmHg 58%
    11:00 +10°C° 0 mm 2 mps 685 mmHg 56%
    12:00 +12°C° 0 mm 2 mps 685 mmHg 54%
    13:00 +12°C° 0.1 mm 2 mps 685 mmHg 54%
    14:00 +12°C° 0.1 mm 2 mps 684 mmHg 54%
    15:00 +12°C° 0.1 mm 2 mps 684 mmHg 54%
    16:00 +10°C° 0 mm 2 mps 683 mmHg 59%
    17:00 +9°C° 0 mm 2 mps 683 mmHg 64%
    18:00 +8°C° 0 mm 2 mps 683 mmHg 69%
    19:00 +8°C° 0 mm 1 mps 683 mmHg 73%
    20:00 +7°C° 0 mm 1 mps 683 mmHg 77%
    21:00 +7°C° 0 mm 1 mps 684 mmHg 81%
    22:00 +5°C° 0 mm 0 mps 684 mmHg 82%
    23:00 +5°C° 0 mm 0 mps 684 mmHg 82%

    Day after tomorrow, 23 March, Saturday

    Time Temperature Precipitation Wind Pressure Humidity
    00:00 +5°C° 0 mm 0 mps 684 mmHg 83%
    01:00 +4°C° 0 mm 0 mps 684 mmHg 83%
    02:00 +4°C° 0 mm 0 mps 684 mmHg 83%
    03:00 +3°C° 0 mm 0 mps 684 mmHg 84%
    04:00 +4°C° 0 mm 1 mps 684 mmHg 82%
    05:00 +4°C° 0 mm 1 mps 684 mmHg 80%
    06:00 +4°C° 0 mm 1 mps 683 mmHg 78%
    07:00 +5°C° 0 mm 1 mps 684 mmHg 71%
    08:00 +7°C° 0 mm 1 mps 684 mmHg 63%
    09:00 +8°C° 0 mm 2 mps 684 mmHg 56%
    10:00 +9°C° 0 mm 2 mps 683 mmHg 54%
    11:00 +10°C° 0 mm 2 mps 683 mmHg 51%
    12:00 +13°C° 0 mm 2 mps 683 mmHg 49%
    13:00 +12°C° 0 mm 3 mps 682 mmHg 47%
    14:00 +12°C° 0 mm 3 mps 681 mmHg 46%
    15:00 +12°C° 0 mm 3 mps 681 mmHg 44%
    16:00 +12°C° 0 mm 2 mps 680 mmHg 50%
    17:00 +10°C° 0 mm 2 mps 680 mmHg 55%
    18:00 +8°C° 0 mm 2 mps 680 mmHg 61%
    19:00 +8°C° 0 mm 2 mps 680 mmHg 63%
    20:00 +8°C° 0 mm 1 mps 680 mmHg 66%
    21:00 +7°C° 0 mm 1 mps 681 mmHg 68%
    22:00 +7°C° 0 mm 1 mps 680 mmHg 65%
    23:00 +7°C° 0 mm 1 mps 680 mmHg 62%

    24 March, Sunday

    Time Temperature Precipitation Wind Pressure Humidity
    00:00 +6°C° 0 mm 1 mps 680 mmHg 60%
    01:00 +6°C° 0 mm 1 mps 680 mmHg 60%
    02:00 +6°C° 0 mm 1 mps 679 mmHg 61%
    03:00 +6°C° 0 mm 1 mps 679 mmHg 61%
    04:00 +6°C° 0 mm 1 mps 679 mmHg 63%
    05:00 +5°C° 0 mm 1 mps 679 mmHg 66%
    06:00 +5°C° 0 mm 1 mps 678 mmHg 68%
    07:00 +7°C° 0 mm 1 mps 678 mmHg 64%
    08:00 +8°C° 0 mm 2 mps 678 mmHg 60%
    09:00 +9°C° 0 mm 2 mps 679 mmHg 56%
    10:00 +10°C° 0 mm 3 mps 678 mmHg 56%
    11:00 +11°C° 0 mm 3 mps 678 mmHg 56%
    12:00 +12°C° 0 mm 3 mps 677 mmHg 56%
    13:00 +11°C° 0.4 mm 3 mps 677 mmHg 58%
    14:00 +11°C° 0.4 mm 4 mps 676 mmHg 61%
    15:00 +11°C° 0.4 mm 4 mps 676 mmHg 63%
    16:00 +10°C° 0.5 mm 3 mps 676 mmHg 68%
    17:00 +9°C° 0.5 mm 3 mps 676 mmHg 73%
    18:00 +8°C° 0.5 mm 2 mps 676 mmHg 78%
    19:00 +7°C° 0.7 mm 2 mps 676 mmHg 82%
    20:00 +7°C° 0.7 mm 2 mps 677 mmHg 85%
    21:00 +7°C° 0.7 mm 2 mps 677 mmHg 89%
    22:00 +7°C° 0.6 mm 2 mps 677 mmHg 90%
    23:00 +6°C° 0.6 mm 2 mps 677 mmHg 92%

    25 March, Monday

    Time Temperature Precipitation Wind Pressure Humidity
    00:00 +6°C° 0.6 mm 2 mps 677 mmHg 93%
    01:00 +6°C° 0.4 mm 2 mps 677 mmHg 93%
    02:00 +6°C° 0.4 mm 2 mps 677 mmHg 94%
    03:00 +5°C° 0.4 mm 2 mps 677 mmHg 94%
    04:00 +5°C° 0.3 mm 2 mps 678 mmHg 94%
    05:00 +5°C° 0.3 mm 2 mps 678 mmHg 93%
    06:00 +5°C° 0.3 mm 2 mps 678 mmHg 93%
    07:00 +5°C° 0.2 mm 2 mps 678 mmHg 90%
    08:00 +6°C° 0.2 mm 2 mps 678 mmHg 87%
    09:00 +5°C° 0.2 mm 3 mps 679 mmHg 84%
    10:00 +7°C° 0.2 mm 3 mps 678 mmHg 83%
    11:00 +7°C° 0.2 mm 3 mps 678 mmHg 81%
    12:00 +7°C° 0.2 mm 3 mps 678 mmHg 79%
    13:00 +7°C° 0.2 mm 3 mps 678 mmHg 79%
    14:00 +7°C° 0.2 mm 3 mps 677 mmHg 79%
    15:00 +7°C° 0.2 mm 3 mps 677 mmHg 78%
    16:00 +7°C° 0.6 mm 3 mps 677 mmHg 81%
    17:00 +5°C° 0.6 mm 3 mps 677 mmHg 84%
    18:00 +4°C° 0.6 mm 3 mps 677 mmHg 87%
    19:00 +4°C° 0.9 mm 3 mps 677 mmHg 88%
    20:00 +4°C° 0.9 mm 2 mps 677 mmHg 90%
    21:00 +4°C° 0.9 mm 2 mps 678 mmHg 91%
    22:00 +4°C° 0.1 mm 2 mps 678 mmHg 91%
    23:00 +4°C° 0.1 mm 2 mps 678 mmHg 90%

    26 March, Tuesday

    Time Temperature Precipitation Wind Pressure Humidity
    00:00 +4°C° 0.1 mm 2 mps 677 mmHg 90%
    01:00 +4°C° 0.2 mm 1 mps 677 mmHg 90%
    02:00 +4°C° 0.2 mm 1 mps 677 mmHg 90%
    03:00 +4°C° 0.2 mm 1 mps 677 mmHg 89%
    04:00 +4°C° 0.1 mm 1 mps 677 mmHg 89%
    05:00 +4°C° 0.1 mm 1 mps 677 mmHg 89%
    06:00 +3°C° 0.1 mm 1 mps 677 mmHg 88%
    07:00 +5°C° 0 mm 1 mps 677 mmHg 85%
    08:00 +6°C° 0 mm 1 mps 677 mmHg 81%
    09:00 +6°C° 0 mm 2 mps 678 mmHg 77%
    10:00 +7°C° 0.1 mm 2 mps 677 mmHg 75%
    11:00 +8°C° 0.1 mm 2 mps 677 mmHg 73%
    12:00 +9°C° 0.1 mm 2 mps 677 mmHg 71%
    13:00 +9°C° 0.1 mm 3 mps 676 mmHg 71%
    14:00 +9°C° 0.1 mm 3 mps 676 mmHg 71%
    15:00 +9°C° 0.1 mm 3 mps 676 mmHg 71%
    16:00 +8°C° 0.2 mm 3 mps 676 mmHg 75%
    17:00 +8°C° 0.2 mm 2 mps 676 mmHg 78%
    18:00 +8°C° 0.2 mm 1 mps 676 mmHg 81%
    19:00 +7°C° 0.2 mm 1 mps 677 mmHg 83%
    20:00 +7°C° 0.2 mm 1 mps 677 mmHg 85%
    21:00 +7°C° 0.2 mm 1 mps 678 mmHg 86%
    22:00 +7°C° 0.1 mm 1 mps 678 mmHg 86%
    23:00 +6°C° 0.1 mm 1 mps 678 mmHg 86%
    Show more